Location: ??
(35.4032°N, 139.3073°E)
Time: 03:40:56
(UTC+00:00)

Cosmos 1656 Rocket - Pass Details

Date: 13 April 2024
Orbit: 796 x 844 km, 71.1° (Epoch: 25 May)

Event Time Altitude Azimuth Distance (km) Brightness Sun altitude
Rises 19:41:25 0° 340° (NNW) 3,304 6.8 -6.8°
Reaches altitude 10° 19:43:50 10° 342° (NNW) 2,370 6.0 -6.3°
Maximum altitude 19:49:14 75° 68° (ENE) 825 3.9 -5.3°
Drops below altitude 10° 19:54:38 10° 154° (SSE) 2,365 6.2 -4.2°
Sets 19:57:03 0° 156° (SSE) 3,296 6.9 -3.8°
